FW6287 Bristol RI US current weather conditions

sailwx.info

Wind from 208 at 1 knots gusting 4

Air temperature 1.1° C
Dewpoint -1.4° C

Last reported at 2020-Jan-27 12:01 UTC.
Time now 2020-Jan-27 12:21 UTC

Location: N 41°42' W 071°17'.
View on Google Maps.

See reports from other nearby stations

  
Tides and Currents Weather Stations Pressure Air Temp Water Temp Dewpoint Dewpoint Depression Visibility Wind Speed Wind Dir Waves Ship Positions
date/time (UTC)wind fromknots sea level pressurealtimeterstation pressurevisibilityair tempwater tempwave heightnotes
2020-Jan-27 12:01 208 1 gusting 4 1.1
2020-Jan-27 11:55 228 1 gusting 3 1.1
2020-Jan-27 11:50 224 0 gusting 3 1.1
2020-Jan-27 11:46 234 1 gusting 3 1.1
2020-Jan-27 11:40 246 0 gusting 4 1.1
2020-Jan-27 11:36 167 0 gusting 4 1.1
2020-Jan-27 11:32 215 1 gusting 6 1.1
2020-Jan-27 11:25 153 2 gusting 6 1.1
2020-Jan-27 11:20 169 0 gusting 3 1.1
2020-Jan-27 11:16 242 0 gusting 3 1.1
2020-Jan-27 11:10 208 1.1
2020-Jan-27 11:05 217 1.1
2020-Jan-27 11:01 125 0 gusting 3 1.1
2020-Jan-27 10:55 142 0 gusting 3 1.1
2020-Jan-27 10:50 232 0 gusting 1 1.1
2020-Jan-27 10:47 169 0 gusting 3 1.1
2020-Jan-27 10:40 242 0 gusting 5 1.1
2020-Jan-27 10:35 288 0 gusting 5 1.1
2020-Jan-27 10:31 222 0 gusting 4 1.1
2020-Jan-27 10:25 214 1 gusting 6 1.1
2020-Jan-27 10:20 236 2 gusting 6 1.1
2020-Jan-27 10:16 236 2 gusting 6 1.7
2020-Jan-27 10:10 229 2 gusting 6 1.7
2020-Jan-27 10:05 250 2 gusting 8 1.7
2020-Jan-27 10:01 243 3 gusting 8 1.7
2020-Jan-27 09:55 232 2 gusting 5 1.7
2020-Jan-27 09:50 231 1 gusting 6 1.7
2020-Jan-27 09:46 207 2 gusting 6 1.7
2020-Jan-27 09:40 226 2 gusting 5 1.7
2020-Jan-27 09:35 186 1 gusting 5 1.7
2020-Jan-27 09:32 211 2 gusting 5 1.7
2020-Jan-27 09:25 209 2 gusting 5 1.7
2020-Jan-27 09:20 199 1 gusting 4 1.7
2020-Jan-27 09:16 231 1 gusting 5 1.7
2020-Jan-27 09:10 219 1 gusting 5 1.7
2020-Jan-27 09:05 219 1 gusting 4 1.7
2020-Jan-27 09:01 212 1 gusting 5 1.7
2020-Jan-27 08:55 215 1 gusting 5 1.7
2020-Jan-27 08:50 198 1 gusting 5 1.7
2020-Jan-27 08:46 226 2 gusting 5 1.7
2020-Jan-27 08:40 214 1 gusting 5 1.7
2020-Jan-27 08:35 249 1 gusting 5 1.7
2020-Jan-27 08:31 194 0 gusting 3 1.7
2020-Jan-27 08:25 213 1 gusting 4 1.7
2020-Jan-27 08:20 221 1 gusting 4 1.7
2020-Jan-27 08:16 204 0 gusting 3 1.7
2020-Jan-27 08:10 192 0 gusting 2 1.7
2020-Jan-27 08:05 187 0 gusting 2 1.7
2020-Jan-27 08:00 165 0 gusting 2 1.7
2020-Jan-27 07:55 168 0 gusting 2 1.7
2020-Jan-27 07:50 198 1 gusting 2 1.7
2020-Jan-27 07:46 232 1 gusting 2 2.2
2020-Jan-27 07:40 192 0 gusting 2 2.2
2020-Jan-27 07:35 200 0 gusting 2 2.2
2020-Jan-27 07:31 150 0 gusting 3 2.2
2020-Jan-27 07:25 212 0 gusting 3 2.2
2020-Jan-27 07:20 210 0 gusting 4 2.2
2020-Jan-27 07:17 229 1 gusting 4 2.2
2020-Jan-27 07:10 238 0 gusting 2 2.2
2020-Jan-27 07:05 245 0 gusting 4 2.8
2020-Jan-27 07:01 232 1 gusting 4 2.8
2020-Jan-27 06:55 254 0 gusting 4 2.8
2020-Jan-27 06:50 226 1 gusting 4 2.8
2020-Jan-27 06:47 233 1 gusting 3 2.8
2020-Jan-27 06:40 226 0 gusting 5 2.8
2020-Jan-27 06:35 245 0 gusting 5 2.8
2020-Jan-27 06:31 244 0 gusting 5 2.8
2020-Jan-27 06:25 195 1 gusting 5 3.3
2020-Jan-27 06:20 238 1 gusting 5 3.3
2020-Jan-27 06:17 250 1 gusting 4 3.3
2020-Jan-27 06:10 236 1 gusting 4 3.3
2020-Jan-27 06:05 257 1 gusting 6 3.3
2020-Jan-27 06:01 267 2 gusting 6 3.3
2020-Jan-27 05:55 219 2 gusting 5 3.3
2020-Jan-27 05:50 267 1 gusting 5 3.3
2020-Jan-27 05:45 226 1 gusting 5 3.3
2020-Jan-27 05:40 224 2 gusting 6 3.9
2020-Jan-27 05:35 233 2 gusting 6 3.9
2020-Jan-27 05:31 237 2 gusting 6 3.9
2020-Jan-27 05:25 231 2 gusting 7 3.9
2020-Jan-27 05:20 246 2 gusting 7 3.9
2020-Jan-27 05:16 246 2 gusting 6 3.9
2020-Jan-27 05:10 220 2 gusting 7 3.9
2020-Jan-27 05:05 229 4 gusting 7 3.9
2020-Jan-27 05:01 243 3 gusting 7 3.9
2020-Jan-27 04:55 219 2 gusting 8 3.9
2020-Jan-27 04:50 260 3 gusting 8 3.9
2020-Jan-27 04:46 253 3 gusting 8 3.9
2020-Jan-27 04:40 217 2 gusting 6 3.9
2020-Jan-27 04:35 226 2 gusting 6 3.9
2020-Jan-27 04:31 215 2 gusting 6 3.9
2020-Jan-27 04:26 233 2 gusting 6 3.9
2020-Jan-27 04:20 269 2 gusting 5 3.9
2020-Jan-27 04:16 252 1 gusting 5 3.9
2020-Jan-27 04:10 185 1 gusting 6 3.9
2020-Jan-27 04:05 198 2 gusting 6 3.9
2020-Jan-27 04:02 218 2 gusting 6 3.9
2020-Jan-27 03:55 222 2 gusting 6 3.9
2020-Jan-27 03:50 235 1 gusting 6 3.9
2020-Jan-27 03:46 207 3 gusting 6 3.9
2020-Jan-27 03:40 206 0 gusting 6 3.9
2020-Jan-27 03:35 162 2 gusting 6 3.9
2020-Jan-27 03:30 248 2 gusting 6 3.9
2020-Jan-27 03:25 228 1 gusting 6 3.9
2020-Jan-27 03:20 214 1 gusting 5 3.3
2020-Jan-27 03:15 203 1 gusting 6 3.3
2020-Jan-27 03:10 232 2 gusting 6 3.3
2020-Jan-27 03:05 214 2 gusting 6 3.3
2020-Jan-27 03:01 271 2 gusting 6 3.3
2020-Jan-27 02:55 260 2 gusting 6 3.3
2020-Jan-27 02:50 257 3 gusting 7 3.3
2020-Jan-27 02:46 250 3 gusting 7 3.3
2020-Jan-27 02:40 245 2 gusting 6 3.3
2020-Jan-27 02:35 243 2 gusting 6 3.3
2020-Jan-27 02:31 229 2 gusting 6 3.3
2020-Jan-27 02:25 224 3 gusting 6 3.3
2020-Jan-27 02:20 251 2 gusting 6 3.3
2020-Jan-27 02:16 223 1 gusting 6 3.3
2020-Jan-27 02:10 206 2 gusting 7 3.3
2020-Jan-27 02:05 184 2 gusting 7 3.3
2020-Jan-27 02:01 183 1 gusting 6 3.3
2020-Jan-27 01:55 231 2 gusting 6 3.3
2020-Jan-27 01:50 212 1 gusting 5 3.3
2020-Jan-27 01:46 214 2 gusting 5 3.3
2020-Jan-27 01:40 219 2 gusting 4 3.3
2020-Jan-27 01:36 201 1 gusting 4 3.3
2020-Jan-27 01:30 231 1 gusting 5 3.3
2020-Jan-27 01:25 167 1 gusting 5 3.3
2020-Jan-27 01:20 232 2 gusting 5 3.3
2020-Jan-27 01:16 215 1 gusting 5 3.3
2020-Jan-27 01:10 245 1 gusting 5 3.9
2020-Jan-27 01:05 212 1 gusting 4 3.9
2020-Jan-27 01:01 210 1 gusting 4 3.9
2020-Jan-27 00:55 219 1 gusting 4 3.9
2020-Jan-27 00:50 219 0 gusting 2 3.9
2020-Jan-27 00:46 203 1 gusting 2 4.4
2020-Jan-27 00:41 238 0 gusting 2 4.4
2020-Jan-27 00:35 209 0 gusting 2 4.4
2020-Jan-27 00:31 224 0 gusting 1 4.4
2020-Jan-27 00:25 225 0 gusting 2 4.4
2020-Jan-27 00:20 226 0 gusting 4 4.4
2020-Jan-27 00:16 211 0 gusting 4 4.4
2020-Jan-27 00:10 214 4.4
2020-Jan-27 00:05 260 0 gusting 2 4.4
2020-Jan-27 00:02 252 0 gusting 3 4.4
2020-Jan-26 23:56 241 0 gusting 3 4.4
2020-Jan-26 23:50 240 0 gusting 2 4.4
2020-Jan-26 23:46 237 1 gusting 3 4.4
2020-Jan-26 23:40 272 1 gusting 3 4.4
2020-Jan-26 23:35 253 0 gusting 2 4.4
2020-Jan-26 23:31 211 4.4
2020-Jan-26 23:25 248 0 gusting 4 4.4
2020-Jan-26 23:20 250 0 gusting 4 4.4
2020-Jan-26 23:15 208 0 gusting 4 4.4
2020-Jan-26 23:10 240 1 gusting 4 4.4
2020-Jan-26 23:05 249 0 gusting 2 4.4
2020-Jan-26 23:02 236 0 gusting 3 4.4
2020-Jan-26 22:55 277 1 gusting 3 5.0
2020-Jan-26 22:50 264 0 gusting 5 5.0
2020-Jan-26 22:45 304 1 gusting 5 5.0
2020-Jan-26 22:40 297 1 gusting 4 5.0
2020-Jan-26 22:35 284 1 gusting 6 5.0
2020-Jan-26 22:31 292 0 gusting 6 5.0
2020-Jan-26 22:25 322 2 gusting 6 5.0
2020-Jan-26 22:20 301 0 gusting 6 5.6
2020-Jan-26 22:16 313 1 gusting 5 5.6
2020-Jan-26 22:10 300 0 gusting 6 5.6
2020-Jan-26 22:05 272 2 gusting 6 5.6
2020-Jan-26 22:01 281 1 gusting 7 5.6
2020-Jan-26 21:55 293 4 gusting 7 6.1
2020-Jan-26 21:50 013 3 gusting 7 6.1
2020-Jan-26 21:45 285 3 gusting 9 6.1
2020-Jan-26 21:40 295 4 gusting 11 6.1
2020-Jan-26 21:35 308 3 gusting 11 6.7
2020-Jan-26 21:32 317 4 gusting 12 6.7
2020-Jan-26 21:25 302 4 gusting 12 7.2
2020-Jan-26 21:20 266 3 gusting 9 7.2
2020-Jan-26 21:16 264 3 gusting 9 7.2
2020-Jan-26 21:10 307 2 gusting 7 7.2
2020-Jan-26 21:05 347 1 gusting 5 7.2
2020-Jan-26 21:01 281 2 gusting 7 7.2
2020-Jan-26 20:55 269 2 gusting 8 7.8
2020-Jan-26 20:50 264 2 gusting 8 7.8
2020-Jan-26 20:46 245 2 gusting 9 7.8
2020-Jan-26 20:40 242 3 gusting 9 7.8
2020-Jan-26 20:36 252 3 gusting 7 8.3
2020-Jan-26 20:31 233 3 gusting 8 8.3
2020-Jan-26 20:25 257 4 gusting 10 8.9
2020-Jan-26 20:20 288 4 gusting 10 9.4
2020-Jan-26 20:16 259 5 gusting 11 9.4
2020-Jan-26 20:10 297 4 gusting 11 9.4
2020-Jan-26 20:05 258 4 gusting 9 9.4
2020-Jan-26 20:01 247 3 gusting 9 9.4
2020-Jan-26 19:55 245 5 gusting 8 8.9
2020-Jan-26 19:50 282 4 gusting 11 8.9
2020-Jan-26 19:46 265 4 gusting 11 9.4
2020-Jan-26 19:40 248 4 gusting 10 9.4
2020-Jan-26 19:35 278 4 gusting 7 9.4
2020-Jan-26 19:30 297 2 gusting 9 9.4
2020-Jan-26 19:25 290 4 gusting 9 8.9
2020-Jan-26 19:20 307 3 gusting 7 8.9
2020-Jan-26 19:16 260 4 gusting 9 8.9
2020-Jan-26 19:10 296 5 gusting 11 9.4
2020-Jan-26 19:05 276 5 gusting 11 9.4
2020-Jan-26 19:01 287 2 gusting 8 9.4
2020-Jan-26 18:55 200 5 gusting 8 8.9
2020-Jan-26 18:50 322 3 gusting 11 9.4
2020-Jan-26 18:46 194 5 gusting 11 8.9
2020-Jan-26 18:40 314 3 gusting 9 8.9
2020-Jan-26 18:35 238 5 gusting 9 8.9
2020-Jan-26 18:30 303 3 gusting 10 8.3
2020-Jan-26 18:25 290 3 gusting 10 8.3
2020-Jan-26 18:20 239 3 gusting 10 8.3
2020-Jan-26 18:16 260 3 gusting 10 8.9
2020-Jan-26 18:10 268 4 gusting 12 9.4
2020-Jan-26 18:05 231 4 gusting 12 8.9
2020-Jan-26 18:01 223 4 gusting 8 8.9
2020-Jan-26 17:55 220 4 gusting 8 8.9
2020-Jan-26 17:50 275 4 gusting 12 8.9
2020-Jan-26 17:46 233 4 gusting 12 8.9
2020-Jan-26 17:40 283 4 gusting 10 8.9
2020-Jan-26 17:35 248 4 gusting 10 8.9
2020-Jan-26 17:31 248 3 gusting 9 8.9
2020-Jan-26 17:26 247 3 gusting 10 8.9
2020-Jan-26 17:21 262 4 gusting 10 8.9
2020-Jan-26 17:17 252 3 gusting 9 8.9
2020-Jan-26 17:10 255 3 gusting 9 8.9
2020-Jan-26 17:05 237 3 gusting 7 8.3
2020-Jan-26 17:01 280 2 gusting 8 8.3
2020-Jan-26 16:56 284 3 gusting 8 8.3
2020-Jan-26 16:50 245 3 gusting 9 8.3
2020-Jan-26 16:46 266 2 gusting 9 8.3
2020-Jan-26 16:40 293 3 gusting 9 7.8
2020-Jan-26 16:35 266 4 gusting 9 7.8
2020-Jan-26 16:30 230 4 gusting 9 7.8
2020-Jan-26 16:25 305 4 gusting 11 7.8
2020-Jan-26 16:20 205 4 gusting 11 7.8
2020-Jan-26 16:15 296 4 gusting 9 7.8
2020-Jan-26 16:10 265 4 gusting 9 7.8
2020-Jan-26 16:06 290 3 gusting 9 7.8
2020-Jan-26 16:01 315 2 gusting 9 7.8
2020-Jan-26 15:55 240 2 gusting 7 7.2
2020-Jan-26 15:50 318 2 gusting 10 7.2
2020-Jan-26 15:46 272 4 gusting 13 6.7
2020-Jan-26 15:41 280 5 gusting 13 6.7
2020-Jan-26 15:35 269 3 gusting 9 6.7
2020-Jan-26 15:30 269 5 gusting 11 6.7
2020-Jan-26 15:25 287 6 gusting 12 6.1
2020-Jan-26 15:20 324 5 gusting 12 6.1
2020-Jan-26 15:16 290 4 gusting 11 6.1
2020-Jan-26 15:10 288 4 gusting 11 6.1
2020-Jan-26 15:05 290 3 gusting 7 6.1
2020-Jan-26 15:02 259 3 gusting 6 6.1
2020-Jan-26 14:55 302 3 gusting 8 6.1
2020-Jan-26 14:50 261 2 gusting 8 5.6
2020-Jan-26 14:47 298 3 gusting 9 5.6
2020-Jan-26 14:40 223 3 gusting 10 5.6
2020-Jan-26 14:35 314 4 gusting 10 5.6
2020-Jan-26 14:31 302 4 gusting 8 5.0
2020-Jan-26 14:25 309 3 gusting 10 5.0
2020-Jan-26 14:20 289 1 gusting 10 5.0
2020-Jan-26 14:16 290 3 gusting 11 5.0
2020-Jan-26 14:10 296 5 gusting 11 5.0
2020-Jan-26 14:05 264 3 gusting 9 5.0
2020-Jan-26 14:01 290 2 gusting 7 5.0
2020-Jan-26 13:55 299 2 gusting 7 5.0
2020-Jan-26 13:50 287 2 gusting 9 4.4
2020-Jan-26 13:46 325 4 gusting 9 4.4
2020-Jan-26 13:40 304 2 gusting 9 4.4
2020-Jan-26 13:35 252 5 gusting 9 4.4
2020-Jan-26 13:31 283 4 gusting 9 4.4
2020-Jan-26 13:25 231 4 gusting 7 4.4
2020-Jan-26 13:20 235 3 gusting 7 4.4
2020-Jan-26 13:17 252 2 gusting 6 4.4
2020-Jan-26 13:10 270 2 gusting 6 4.4
2020-Jan-26 13:06 236 2 gusting 5 4.4
2020-Jan-26 13:01 249 1 gusting 7 4.4
2020-Jan-26 12:55 290 1 gusting 9 4.4
2020-Jan-26 12:50 243 3 gusting 10 4.4
2020-Jan-26 12:47 262 4 gusting 10 4.4
2020-Jan-26 12:40 228 2 gusting 9 4.4
2020-Jan-26 12:35 252 3 gusting 9 4.4
2020-Jan-26 12:31 229 3 gusting 9 4.4
2020-Jan-26 12:25 280 2 gusting 10 4.4
2020-Jan-26 12:20 269 3 gusting 10 4.4
2020-Jan-26 12:16 243 4 gusting 10 4.4
2020-Jan-26 12:10 292 3 gusting 8 4.4
2020-Jan-26 12:05 302 3 gusting 8 4.4
2020-Jan-26 12:01 336 4 gusting 10 5.0
2020-Jan-26 11:55 311 3 gusting 10 5.0
2020-Jan-26 11:50 269 3 gusting 6 5.0
2020-Jan-26 11:46 269 3 gusting 6 5.0
2020-Jan-26 11:40 252 3 gusting 6 5.6
2020-Jan-26 11:35 291 2 gusting 6 5.6
2020-Jan-26 11:31 274 3 gusting 6 5.6
2020-Jan-26 11:26 248 2 gusting 5 5.6
2020-Jan-26 11:21 284 1 gusting 7 5.6
2020-Jan-26 11:16 277 1 gusting 7 5.6
2020-Jan-26 11:10 289 2 gusting 7 5.6
2020-Jan-26 11:05 266 2 gusting 6 5.6
2020-Jan-26 11:00 310 1 gusting 6 5.6
2020-Jan-26 10:55 035 2 gusting 6 5.6
2020-Jan-26 10:50 293 2 gusting 6 5.6
2020-Jan-26 10:46 252 2 gusting 6 6.1
2020-Jan-26 10:40 252 2 gusting 5 6.1
2020-Jan-26 10:35 231 2 gusting 5 6.1
2020-Jan-26 10:31 291 2 gusting 8 6.1
2020-Jan-26 10:25 281 3 gusting 8 6.1
2020-Jan-26 10:20 290 1 gusting 4 6.1
2020-Jan-26 10:16 232 1 gusting 5 6.1
2020-Jan-26 10:10 250 1 gusting 8 6.1
2020-Jan-26 10:05 233 2 gusting 8 6.1
2020-Jan-26 10:01 259 2 gusting 7 6.1
2020-Jan-26 09:55 281 1 gusting 5 6.1
2020-Jan-26 09:50 255 0 gusting 2 6.1
2020-Jan-26 09:46 282 0 gusting 4 6.1
2020-Jan-26 09:40 254 1 gusting 5 6.1
2020-Jan-26 09:35 239 1 gusting 5 6.7
2020-Jan-26 09:32 178 1 gusting 4 6.1
2020-Jan-26 09:25 250 0 gusting 3 6.1
2020-Jan-26 09:20 252 0 gusting 3 6.1
2020-Jan-26 09:17 238 6.7
2020-Jan-26 09:10 245 0 gusting 4 6.7
2020-Jan-26 09:05 226 1 gusting 4 6.7
2020-Jan-26 09:01 223 1 gusting 4 6.7
2020-Jan-26 08:55 219 0 gusting 4 6.7
2020-Jan-26 08:50 6.7
2020-Jan-26 08:46 250 0 gusting 5 6.7
2020-Jan-26 08:40 199 1 gusting 5 6.7
2020-Jan-26 08:35 183 1 gusting 5 6.7
2020-Jan-26 08:31 278 2 gusting 6 6.7
2020-Jan-26 08:26 247 0 gusting 6 7.2
2020-Jan-26 08:20 252 1 gusting 5 7.2
2020-Jan-26 08:16 188 1 gusting 6 7.2
2020-Jan-26 08:10 193 1 gusting 6 6.7
2020-Jan-26 08:05 231 2 gusting 4 6.7
2020-Jan-26 08:01 167 1 gusting 4 6.7
2020-Jan-26 07:55 212 1 gusting 4 6.7
2020-Jan-26 07:50 176 1 gusting 3 6.7
2020-Jan-26 07:46 193 1 gusting 4 6.7
2020-Jan-26 07:41 198 1 gusting 4 6.7
2020-Jan-26 07:35 214 1 gusting 3 6.7
2020-Jan-26 07:32 176 1 gusting 3 6.7
2020-Jan-26 07:25 217 1 gusting 3 6.7
2020-Jan-26 07:20 203 1 gusting 3 6.7
2020-Jan-26 07:17 205 1 gusting 3 6.7
2020-Jan-26 07:10 205 0 gusting 2 6.7
2020-Jan-26 07:05 133 0 gusting 2 6.7
2020-Jan-26 07:01 208 0 gusting 2 6.7
2020-Jan-26 06:55 205 0 gusting 0 6.1
2020-Jan-26 06:50 202 6.7
2020-Jan-26 06:46 203 6.7
2020-Jan-26 06:40 202 0 gusting 0 6.7
2020-Jan-26 06:35 205 7.2
2020-Jan-26 06:31 196 7.8
2020-Jan-26 06:25 212 0 gusting 1 7.8
2020-Jan-26 06:20 207 0 gusting 1 7.8
2020-Jan-26 06:16 191 0 gusting 2 8.3
2020-Jan-26 06:10 230 0 gusting 4 8.3
2020-Jan-26 06:05 230 0 gusting 4 8.3
2020-Jan-26 06:01 214 2 gusting 4 8.3
2020-Jan-26 05:55 229 1 gusting 5 8.3
2020-Jan-26 05:50 249 1 gusting 5 8.3
2020-Jan-26 05:47 211 0 gusting 5 8.3
2020-Jan-26 05:40 251 1 gusting 5 8.3
2020-Jan-26 05:35 214 2 gusting 5 8.3
2020-Jan-26 05:31 221 0 gusting 2 8.3
2020-Jan-26 05:25 214 1 gusting 3 8.3
2020-Jan-26 05:20 206 1 gusting 3 8.3
2020-Jan-26 05:16 217 8.3
2020-Jan-26 05:10 226 0 gusting 3 8.3
2020-Jan-26 05:05 211 1 gusting 3 8.3
2020-Jan-26 05:00 149 1 gusting 4 8.3
2020-Jan-26 04:55 200 0 gusting 5 8.9
2020-Jan-26 04:50 158 2 gusting 5 8.9
2020-Jan-26 04:45 205 1 gusting 5 8.9
2020-Jan-26 04:40 219 2 gusting 5 8.9
2020-Jan-26 04:35 174 2 gusting 5 8.9
2020-Jan-26 04:31 219 2 gusting 6 8.9
2020-Jan-26 04:25 198 3 gusting 6 8.9
2020-Jan-26 04:20 200 2 gusting 7 8.9
2020-Jan-26 04:16 188 3 gusting 7 8.9
2020-Jan-26 04:10 217 4 gusting 7 8.9
2020-Jan-26 04:05 238 2 gusting 6 9.4
2020-Jan-26 04:02 151 3 gusting 6 9.4
2020-Jan-26 03:55 152 3 gusting 6 9.4
2020-Jan-26 03:50 200 3 gusting 12 9.4
2020-Jan-26 03:46 136 6 gusting 12 10.0
2020-Jan-26 03:40 203 5 gusting 11 10.0
2020-Jan-26 03:35 188 5 gusting 13 10.0
2020-Jan-26 03:31 181 6 gusting 13 10.6
2020-Jan-26 03:25 186 5 gusting 12 10.6
2020-Jan-26 03:20 153 6 gusting 19 10.6
2020-Jan-26 03:16 238 8 gusting 19 11.1
2020-Jan-26 03:10 203 8 gusting 16 11.1
2020-Jan-26 03:05 141 8 gusting 20 11.1
2020-Jan-26 03:02 230 8 gusting 20 11.1
2020-Jan-26 02:55 167 9 gusting 20 11.1
2020-Jan-26 02:50 217 9 gusting 20 11.1
2020-Jan-26 02:46 133 6 gusting 16 11.1
2020-Jan-26 02:40 140 8 gusting 19 11.1
2020-Jan-26 02:35 199 6 gusting 20 11.1
2020-Jan-26 02:31 148 10 gusting 20 11.1
2020-Jan-26 02:25 174 7 gusting 19 11.1
2020-Jan-26 02:20 153 12 gusting 19 11.1
2020-Jan-26 02:17 154 9 gusting 19 11.7
2020-Jan-26 02:10 179 6 gusting 19 11.7
2020-Jan-26 02:05 163 8 gusting 19 11.7
2020-Jan-26 02:01 170 6 gusting 17 11.1
2020-Jan-26 01:55 187 6 gusting 17 11.1
2020-Jan-26 01:50 202 6 gusting 21 11.1
2020-Jan-26 01:46 162 6 gusting 21 10.6
2020-Jan-26 01:40 032 7 gusting 18 10.6
2020-Jan-26 01:35 132 6 gusting 16 10.6
2020-Jan-26 01:31 150 5 gusting 13 10.0
2020-Jan-26 01:25 043 5 gusting 13 9.4
2020-Jan-26 01:20 188 5 gusting 13 9.4
2020-Jan-26 01:15 120 4 gusting 12 8.9
2020-Jan-26 01:10 150 4 gusting 15 8.9
2020-Jan-26 01:05 034 4 gusting 15 8.3
2020-Jan-26 01:00 165 3 gusting 15 8.3
2020-Jan-26 00:55 198 4 gusting 15 7.8
2020-Jan-26 00:50 198 3 gusting 12 7.8
2020-Jan-26 00:47 044 4 gusting 15 7.8
2020-Jan-26 00:40 091 4 gusting 15 7.8
2020-Jan-26 00:35 131 6 gusting 14 7.8
2020-Jan-26 00:32 226 6 gusting 13 7.8
2020-Jan-26 00:25 095 5 gusting 13 7.8
2020-Jan-26 00:20 033 6 gusting 13 7.8
2020-Jan-26 00:16 123 6 gusting 18 7.2
2020-Jan-26 00:10 136 8 gusting 18 7.2
2020-Jan-26 00:05 139 6 gusting 15 7.2
2020-Jan-26 00:01 054 6 gusting 15 7.2
2020-Jan-25 23:55 078 7 gusting 17 7.2
2020-Jan-25 23:50 068 8 gusting 18 7.2
2020-Jan-25 23:46 046 7 gusting 18 7.8
2020-Jan-25 23:40 094 4 gusting 15 7.8
2020-Jan-25 23:35 118 6 gusting 15 7.8
2020-Jan-25 23:31 070 6 gusting 13 7.8
2020-Jan-25 23:25 210 6 gusting 13 7.2
2020-Jan-25 23:20 066 6 gusting 13 7.2
2020-Jan-25 23:16 132 4 gusting 13 7.2
2020-Jan-25 23:10 163 5 gusting 12 7.2
2020-Jan-25 23:05 112 5 gusting 12 7.2
2020-Jan-25 23:01 095 5 gusting 12 7.2
2020-Jan-25 22:55 066 5 gusting 13 7.2
2020-Jan-25 22:51 068 6 gusting 13 7.2
2020-Jan-25 22:46 036 6 gusting 13 7.2
2020-Jan-25 22:41 084 5 gusting 14 7.2
2020-Jan-25 22:35 068 5 gusting 14 7.2
2020-Jan-25 22:32 060 5 gusting 13 7.2
2020-Jan-25 22:25 065 6 gusting 17 7.2
2020-Jan-25 22:20 117 7 gusting 17 7.2
2020-Jan-25 22:16 015 5 gusting 9 7.2
2020-Jan-25 22:10 116 3 gusting 10 7.2
2020-Jan-25 22:05 090 4 gusting 15 7.2
2020-Jan-25 22:01 176 6 gusting 15 7.2
2020-Jan-25 21:55 130 6 gusting 15 7.2
2020-Jan-25 21:51 084 6 gusting 15 7.2
2020-Jan-25 21:47 063 6 gusting 15 7.2
2020-Jan-25 21:40 101 6 gusting 15 7.8
2020-Jan-25 21:35 045 6 gusting 13 7.8
2020-Jan-25 21:31 115 6 gusting 12 7.8
2020-Jan-25 21:25 039 6 gusting 12 7.2
2020-Jan-25 21:20 087 5 gusting 11 7.2
2020-Jan-25 21:15 056 6 gusting 11 7.2
2020-Jan-25 21:10 031 5 gusting 13 7.2
2020-Jan-25 21:05 069 3 gusting 13 7.2
2020-Jan-25 21:01 073 6 gusting 13 7.2
2020-Jan-25 20:55 090 6 gusting 14 7.2
2020-Jan-25 20:50 200 8 gusting 14 7.2
2020-Jan-25 20:46 047 6 gusting 14 7.2
2020-Jan-25 20:40 066 6 gusting 15 7.2
2020-Jan-25 20:35 079 8 gusting 15 7.2
2020-Jan-25 20:31 064 6 gusting 14 7.2
2020-Jan-25 20:25 041 5 gusting 13 7.2
2020-Jan-25 20:20 164 5 gusting 13 7.2
2020-Jan-25 20:16 071 5 gusting 12 7.2
2020-Jan-25 20:10 053 6 gusting 11 7.2
2020-Jan-25 20:05 055 6 gusting 13 7.2
2020-Jan-25 20:01 080 6 gusting 13 7.2
2020-Jan-25 19:55 098 6 gusting 13 7.2
2020-Jan-25 19:50 077 6 gusting 13 7.8
2020-Jan-25 19:46 064 6 gusting 13 7.8
2020-Jan-25 19:40 072 7 gusting 13 7.8
2020-Jan-25 19:35 043 4 gusting 9 7.8
2020-Jan-25 19:30 057 5 gusting 10 7.8
2020-Jan-25 19:25 070 5 gusting 12 7.8
2020-Jan-25 19:20 054 6 gusting 13 7.8
2020-Jan-25 19:17 080 6 gusting 13 7.8
2020-Jan-25 19:10 076 4 gusting 12 7.8
2020-Jan-25 19:05 071 6 gusting 10 7.8
2020-Jan-25 19:02 096 5 gusting 9 7.8
2020-Jan-25 18:55 075 6 gusting 10 7.8
2020-Jan-25 18:50 065 5 gusting 11 7.8
2020-Jan-25 18:46 060 5 gusting 11 7.8
2020-Jan-25 18:41 096 5 gusting 10 7.8
2020-Jan-25 18:35 041 5 gusting 12 7.8
2020-Jan-25 18:31 040 5 gusting 15 7.8
2020-Jan-25 18:25 056 6 gusting 15 7.8
2020-Jan-25 18:20 050 6 gusting 12 7.8
2020-Jan-25 18:16 070 7 gusting 12 7.8
2020-Jan-25 18:10 054 6 gusting 15 7.8
2020-Jan-25 18:05 041 6 gusting 15 7.8
2020-Jan-25 18:01 068 6 gusting 13 7.8
2020-Jan-25 17:55 060 6 gusting 14 8.3
2020-Jan-25 17:50 037 7 gusting 14 8.3
2020-Jan-25 17:46 058 6 gusting 13 8.3
2020-Jan-25 17:40 070 6 gusting 13 8.3
2020-Jan-25 17:35 056 6 gusting 11 8.3
2020-Jan-25 17:31 066 5 gusting 9 8.3
2020-Jan-25 17:25 058 5 gusting 9 8.3
2020-Jan-25 17:21 065 3 gusting 10 8.3
2020-Jan-25 17:16 104 5 gusting 10 8.3
2020-Jan-25 17:11 047 5 gusting 11 7.8
2020-Jan-25 17:06 046 6 gusting 11 7.8
2020-Jan-25 17:02 086 6 gusting 9 7.8
2020-Jan-25 16:55 067 4 gusting 8 7.8
2020-Jan-25 16:50 060 5 gusting 10 7.8
2020-Jan-25 16:45 050 6 gusting 10 7.8
2020-Jan-25 16:40 079 5 gusting 13 7.8
2020-Jan-25 16:35 032 6 gusting 13 7.2
2020-Jan-25 16:30 058 6 gusting 11 7.2
2020-Jan-25 16:25 073 5 gusting 12 7.2
2020-Jan-25 16:20 061 6 gusting 13 7.2
2020-Jan-25 16:16 033 6 gusting 13 7.2
2020-Jan-25 16:10 086 5 gusting 11 6.7
2020-Jan-25 16:05 057 5 gusting 13 6.7
2020-Jan-25 16:00 070 6 gusting 13 6.7
2020-Jan-25 15:55 049 5 gusting 12 6.7
2020-Jan-25 15:50 051 6 gusting 11 6.7
2020-Jan-25 15:46 042 5 gusting 13 6.1
2020-Jan-25 15:41 089 6 gusting 13 6.1
2020-Jan-25 15:35 033 6 gusting 15 6.1
2020-Jan-25 15:33 097 6 gusting 15 6.1
2020-Jan-25 15:25 084 6 gusting 12 5.6
2020-Jan-25 15:21 032 5 gusting 13 5.6
2020-Jan-25 15:16 049 8 gusting 13 5.6
2020-Jan-25 15:10 019 6 gusting 11 5.6
2020-Jan-25 15:05 056 5 gusting 11 5.6
2020-Jan-25 15:01 060 4 gusting 10 5.6
2020-Jan-25 14:56 093 6 gusting 10 5.0
2020-Jan-25 14:51 076 5 gusting 10 5.0
2020-Jan-25 14:46 056 3 gusting 11 5.0
2020-Jan-25 14:40 034 6 gusting 13 5.0
2020-Jan-25 14:35 081 7 gusting 13 5.0
2020-Jan-25 14:30 089 5 gusting 12 5.0
2020-Jan-25 14:26 041 6 gusting 12 4.4
2020-Jan-25 14:20 055 6 gusting 12 4.4
2020-Jan-25 14:15 089 6 gusting 12 4.4
2020-Jan-25 14:10 063 5 gusting 11 4.4
2020-Jan-25 14:05 049 5 gusting 11 4.4
2020-Jan-25 14:02 077 5 gusting 9 4.4
2020-Jan-25 13:55 062 3 gusting 12 3.9
2020-Jan-25 13:50 091 5 gusting 12 3.9
2020-Jan-25 13:47 062 6 gusting 11 3.9
2020-Jan-25 13:40 090 5 gusting 9 3.9
2020-Jan-25 13:35 050 5 gusting 11 3.9
2020-Jan-25 13:31 056 6 gusting 11 3.9
2020-Jan-25 13:26 053 5 gusting 11 3.9
2020-Jan-25 13:20 055 5 gusting 8 3.3
2020-Jan-25 13:17 056 4 gusting 8 3.3
2020-Jan-25 13:10 084 5 gusting 11 3.3
2020-Jan-25 13:05 048 4 gusting 12 3.3
2020-Jan-25 13:01 087 6 gusting 12 3.3
2020-Jan-25 12:55 061 5 gusting 12 3.3
2020-Jan-25 12:50 049 6 gusting 12 2.8
2020-Jan-25 12:46 064 5 gusting 11 2.8
2020-Jan-25 12:40 058 5 gusting 10 2.8
2020-Jan-25 12:35 051 5 gusting 12 2.8
2020-Jan-25 12:31 051 6 gusting 12 2.8
2020-Jan-25 12:25 058 6 gusting 10 2.8
2020-Jan-25 12:20 064 4 gusting 10 2.8
2020-Jan-25 12:17 052 2 gusting 11 2.2
2020-Jan-25 12:10 050 5 gusting 11 2.8
2020-Jan-25 12:05 051 5 gusting 11 2.2
2020-Jan-25 12:01 060 4 gusting 11 2.2